SCP
0 0 0 0 0 0 0 0 0 0 0 0 0 0 0 0 0 0 0 0 0 0 0 0 0 0 0 0 0 0 0 0 0 0 0 0 0 0 0 0 0 0 0 0
0 0 0 0 0 0 0 0 0 0 0 0 0 0 0 0 0 0 0 0 0 0 0 0 0 0 0 0 0 0 0 0 0 0 0 0 0 0 0 0 0 0 0 0
0 0 0 0 0 0 0 0 0 0 0 0 0 0 0 0 0 0 0 0 0 0 0 0 0 0 0 0 0 0 0 0 0 0 0 0 0 0 0 0 0 0 0 0
0 0 0 0 0 0 0 0 0 0 0 0 0 0 0 0 0 0 0 0 0 0 0 0 0 0 0 0 0 0 0 0 0 0 0 0 0 0 0 0 0 0 0 0
0 0 0 0 0 0 0 0 0 0 0 0 0 0 0 0 0 0 0 0 0 0 0 0 0 0 0 0 0 0 0 0 0 0 0 0 0 0 0 0 0 0 0 0
0 0 0 0 0 0 0 0 0 0 0 0 0 0 0 0 0 0 0 0 0 0 0 0 0 0 0 0 0 0 0 0 0 0 0 0 0 0 0 0 0 0 0 0
0 0 0 0 0 0 0 0 0 0 0 0 0 0 0 0 0 0 0 0 0 0 0 0 0 0 0 0 0 0 0 0 0 0 0 0 0 0 0 0 0 0 0 0
0 0 0 0 0 0 0 0 0 0 0 0 0 0 0 0 0 0 0 0 0 0 0 0 0 0 0 0 0 0 0 0 0 0 0 0 0 0 0 0 0 0 0 0
0 0 0 0 0 0 0 0 0 0 0 0 0 0 0 0 0 0 0 0 0 0 0 0 0 0 0 0 0 0 0 0 0 0 0 0 0 0 0 0 0 0 0 0
0 0 0 0 0 0 0 0 0 0 0 0 0 0 0 0 0 0 0 0 0 0 0 0 0 0 0 0 0 0 0 0 0 0 0 0 0 0 0 0 0 0 0 0
0 0 0 0 0 0 0 0 0 0 0 0 0 0 0 0 0 0 0 0 0 0 0 0 0 0 0 0 0 0 0 0 0 0 0 0 0 0 0 0 0 0 0 0
0 0 0 0 0 0 0 0 0 0 0 0 0 0 0 0 0 0 0 0 0 0 0 0 0 0 0 0 0 0 0 0 0 0 0 0 0 0 0 0 0 0 0 0
0 0 0 0 0 0 0 0 0 0 0 0 0 0 0 0 0 0 0 0 0 0 0 0 0 0 0 0 0 0 0 0 0 0 0 0 0 0 0 0 0 0 0 0
0 0 0 0 0 0 0 0 0 0 0 0 0 0 0 0 0 0 0 0 0 0 0 0 0 0 0 0 0 0 0 0 0 0 0 0 0 0 0 0 0 0 0 0
0 0 0 0 0 0 0 0 0 0 0 0 0 0 0 0 0 0 0 0 0 0 0 0 0 0 0 0 0 0 0 0 0 0 0 0 0 0 0 0 0 0 0 0
0 0 0 0 0 0 0 0 0 0 0 0 0 0 0 0 0 0 0 0 0 0 0 0 0 0 0 0 0 0 0 0 0 0 0 0 0 0 0 0 0 0 0 0
0 0 0 0 0 0 0 0 0 0 0 0 0 0 0 0 0 0 0 0 0 0 0 0 0 0 0 0 0 0 0 0 0 0 0 0 0 0 0 0 0 0 0 0
0 0 0 0 0 0 0 0 0 0 0 0 0 0 0 0 0 0 0 0 0 0 0 0 0 0 0 0 0 0 0 0 0 0 0 0 0 0 0 0 0 0 0 0
0 0 0 0 0 0 0 0 0 0 0 0 0 0 0 0 0 0 0 0 0 0 0 0 0 0 0 0 0 0 0 0 0 0 0 0 0 0 0 0 0 0 0 0
0 0 0 0 0 0 0 0 0 0 0 0 0 0 0 0 0 0 0 0 0 0 0 0 0 0 0 0 0 0 0 0 0 0 0 0 0 0 0 0 0 0 0 0
0 0 0 0 0 0 0 0 0 0 0 0 0 0 0 0 0 0 0 0 0 0 0 0 0 0 0 0 0 0 0 0 0 0 0 0 0 0 0 0 0 0 0 0
0 0 0 0 0 0 0 0 0 0 0 0 0 0 0 0 0 0 0 0 0 0 0 0 0 0 0 0 0 0 0 0 0 0 0 0 0 0 0 0 0 0 0 0
0 0 0 0 0 0 0 0 0 0 0 0 0 0 0 0 0 0 0 0 0 0 0 0 0 0 0 0 0 0 0 0 0 0 0 0 0 0 0 0 0 0 0 0
0 0 0 0 0 0 0 0 0 0 0 0 0 -0 -0 0 0 0 0 0 0 0 0 0 0 0 0 0 0 0 0 0 0 0 0 0 0 0 0 0 0 0 0 0
0 0 0 0 0 0 0 0 0 0 0 0 0 -0 -0 0 0 0 0 0 0 0 0 0 0 0 0 0 0 0 0 0 0 0 0 0 0 0 0 0 0 0 0 0
0 0 0 0 0 0 0 0 0 0 0 0 -0 -0 -0 0 0 0 0 0 0 0 0 0 0 0 0 0 0 0 0 0 0 0 0 0 0 0 0 0 0 0 0 0
Wind_Speed
7 6 4 3 3 3 1 2 0 2 1 1 1 1 2 4 4 4 5 6 6 7 8 8 7 6 5 4 4 6 4 4 4 2 2 2 2 1 2 2 3 2 2 3
6 6 4 3 2 3 3 2 1 1 1 1 1 2 3 3 3 3 3 5 7 8 7 7 8 6 6 4 3 5 5 4 5 2 2 2 2 1 2 1 1 1 2 2
7 2 3 5 5 4 3 2 1 1 1 4 4 3 3 4 3 3 2 3 5 8 8 8 7 6 5 4 3 4 5 5 5 4 3 2 2 2 1 1 1 1 2 2
6 4 4 5 4 5 3 1 2 3 5 4 4 2 2 4 4 4 3 3 4 6 7 8 8 6 5 4 3 4 5 5 5 4 3 2 2 1 1 1 1 1 2 2
4 3 5 5 3 4 2 1 3 5 6 6 6 4 2 6 5 4 4 4 4 6 7 8 8 7 5 5 3 3 5 5 5 3 3 2 1 1 1 1 1 2 2 2
6 4 4 4 3 3 1 3 6 6 5 6 6 4 1 3 4 4 4 4 4 6 7 7 8 7 6 5 4 3 4 5 4 3 3 2 2 2 2 2 1 1 1 1
9 8 6 4 5 5 5 4 3 5 5 4 3 2 2 5 5 5 5 5 5 6 7 7 7 7 6 6 5 3 4 4 4 2 2 3 2 1 2 2 2 1 1 1
8 7 7 6 6 4 6 7 4 3 2 0 1 2 4 7 6 5 5 5 7 6 7 7 7 6 6 6 5 4 4 4 4 3 2 2 2 1 1 1 2 2 1 1
4 3 4 3 4 6 6 6 7 6 5 3 2 4 5 6 6 5 6 5 5 6 7 7 7 6 6 6 5 4 4 4 4 3 2 2 2 2 2 1 1 2 1 1
6 3 5 4 4 5 6 6 4 3 3 3 3 4 4 6 6 4 4 5 5 6 6 7 7 6 6 6 5 4 3 4 4 3 2 2 1 2 1 1 1 2 1 1
8 6 6 7 6 6 6 7 5 4 3 2 2 2 6 7 6 5 4 4 5 5 6 6 5 6 6 6 5 4 3 3 3 3 2 2 2 2 2 1 1 2 2 2
5 6 6 6 5 4 4 6 6 4 4 3 2 1 4 6 6 5 4 4 4 5 5 5 5 5 5 5 5 5 4 3 3 3 3 2 2 2 2 2 2 2 1 1
4 6 6 5 6 6 6 6 6 7 5 5 4 2 4 5 6 5 4 4 4 5 5 5 4 4 4 5 5 4 4 4 3 3 2 2 3 2 2 2 2 2 1 1
4 7 7 6 2 2 6 7 8 8 6 6 5 2 4 4 4 4 4 3 3 4 4 4 4 3 3 4 4 4 4 4 4 3 2 2 3 3 2 2 2 1 2 2
6 9 9 9 6 7 7 9 9 10 10 9 7 4 2 3 3 3 2 2 3 3 3 2 2 3 3 3 3 4 4 4 4 4 3 3 2 2 2 2 1 1 1 1
7 8 9 11 9 8 11 12 12 12 11 11 9 7 2 0 2 2 2 2 2 2 3 3 2 2 3 3 3 3 4 4 4 4 4 3 3 2 2 2 2 1 1 1
7 8 8 9 8 8 11 11 12 11 10 10 10 5 2 1 1 1 1 2 3 2 1 2 2 2 2 2 3 3 3 4 4 3 3 3 3 2 3 3 2 2 2 1
8 8 6 7 8 11 4 1 4 5 5 5 5 3 2 2 1 0 1 1 1 1 1 2 1 1 1 1 1 2 2 3 4 3 3 3 3 2 2 2 3 3 2 2
9 8 6 7 9 9 5 4 4 5 5 4 4 3 2 3 3 1 2 3 2 2 1 1 1 1 1 1 1 1 2 3 3 3 3 3 3 3 2 2 3 3 3 2
9 9 8 7 8 8 3 3 1 3 5 2 2 2 2 2 2 1 3 2 2 2 2 1 0 0 0 0 0 1 2 2 3 3 3 3 3 3 3 3 2 2 2 3
9 9 10 10 10 6 2 3 2 5 2 2 1 1 2 2 1 1 2 2 2 1 1 1 0 1 1 1 1 2 2 2 2 3 3 3 3 3 3 3 2 2 3 3
8 7 9 9 10 7 3 4 4 1 2 1 0 1 2 3 2 1 1 1 1 1 1 1 1 1 1 1 1 2 2 1 1 1 2 3 3 3 2 3 3 3 3 3
8 6 4 5 4 1 1 0 1 0 1 1 2 2 2 3 3 2 2 1 1 1 1 1 1 1 1 2 1 2 1 0 1 1 1 2 2 2 2 3 3 3 3 2
6 5 6 6 5 4 3 1 1 2 3 2 2 3 3 4 4 3 2 2 2 2 1 1 1 2 2 2 2 1 1 0 1 2 1 2 2 2 2 2 2 2 3 3
5 4 7 10 7 5 5 4 3 3 3 3 3 4 4 5 5 4 4 2 2 2 2 2 3 3 2 2 1 1 1 1 1 2 2 2 2 2 2 1 1 2 3 3
9 9 9 8 6 6 5 4 3 4 4 4 4 4 4 5 6 5 4 3 3 3 3 3 3 3 3 2 2 1 2 2 2 2 2 2 2 2 2 2 0 1 1 1
Wind_Direction
217 227 231 232 243 261 250 234 199 104 172 218 230 195 178 171 174 181 171 174 167 151 150 144 140 139 135 129 127 124 134 115 105 90 87 90 80 64 66 68 77 82 77 83
215 227 240 242 257 274 261 244 189 140 160 271 248 252 207 171 180 182 184 175 165 155 150 148 150 148 140 139 136 129 121 113 112 109 99 108 108 94 87 75 80 79 89 92
224 205 216 227 228 242 248 260 254 258 278 260 259 253 193 166 155 148 153 155 150 154 155 149 146 136 126 127 131 124 124 119 113 102 73 77 74 61 77 103 87 63 77 71
238 222 221 239 250 268 245 288 271 257 255 251 230 276 214 165 152 152 154 157 153 149 149 147 140 134 139 138 134 126 121 112 103 102 98 108 113 112 138 146 147 144 117 109
234 230 236 233 251 282 318 342 269 264 268 268 244 243 225 152 156 152 152 152 149 142 143 143 139 139 140 127 112 106 107 107 104 111 117 107 103 129 127 111 120 114 103 109
254 244 262 265 251 242 252 265 252 242 252 257 238 225 188 145 141 142 136 137 137 138 141 140 134 134 133 122 112 104 110 109 116 131 137 148 148 156 147 138 127 114 128 136
223 220 219 247 244 208 211 233 244 220 214 229 180 184 117 103 102 107 125 132 136 134 137 135 135 141 138 134 132 131 123 125 137 158 170 164 167 175 150 143 145 148 144 134
219 209 198 213 235 241 229 233 247 274 269 174 162 166 114 103 96 95 103 116 128 132 134 137 139 140 141 139 143 151 146 145 150 170 194 163 155 130 109 122 141 152 134 147
264 192 157 181 241 259 252 238 266 288 297 291 182 129 121 117 115 102 99 103 117 130 134 137 139 142 143 144 152 158 154 157 162 178 183 164 160 137 130 161 133 118 125 151
287 256 178 183 227 237 274 288 270 255 274 265 207 184 154 133 115 100 108 110 115 129 134 140 143 146 147 147 154 164 167 169 166 173 181 169 156 123 116 133 119 128 128 111
277 263 199 192 210 228 226 243 255 254 250 272 294 61 106 120 113 110 102 103 114 124 133 134 138 146 147 148 151 161 172 172 166 172 173 175 165 150 157 155 143 152 165 155
261 276 241 207 199 221 238 251 263 265 269 260 261 128 104 108 106 99 92 94 102 117 123 129 135 144 150 156 161 171 175 171 168 168 169 184 163 165 168 163 182 184 181 171
294 265 250 206 194 204 226 237 262 273 271 261 259 145 125 107 99 91 87 85 100 114 122 124 130 143 155 159 163 170 176 170 160 161 177 184 169 178 180 176 188 198 175 175
283 264 266 265 291 238 231 238 247 260 261 262 255 189 166 135 113 98 92 85 92 113 120 133 142 152 158 161 166 168 175 173 159 156 176 190 179 185 190 177 180 209 178 179
253 260 268 274 273 270 259 250 245 248 256 263 268 259 228 144 128 123 118 121 115 118 117 127 144 150 159 163 170 171 171 174 168 168 181 193 187 185 176 155 168 203 182 171
245 261 264 266 263 262 262 253 246 247 252 258 267 268 262 50 133 147 151 138 128 122 145 154 165 172 172 172 180 178 169 171 170 172 178 173 180 178 169 168 172 176 171 144
237 251 261 261 257 263 254 242 239 240 241 247 252 257 277 244 230 186 146 150 158 144 159 164 177 195 190 195 191 187 181 171 173 173 170 163 174 172 170 177 176 174 175 162
253 251 257 263 254 247 238 244 229 236 247 252 263 275 281 296 302 204 122 132 142 145 155 162 167 196 212 193 194 210 188 172 174 178 173 164 165 163 167 176 178 177 171 168
245 244 245 252 255 256 227 218 219 230 246 248 255 254 266 275 270 227 67 59 60 71 82 101 139 201 218 204 193 212 219 188 177 183 179 175 171 165 175 188 186 180 176 182
228 240 242 246 249 254 209 146 180 246 242 216 232 244 239 224 233 105 55 54 44 39 39 40 127 220 197 186 244 228 222 198 183 187 184 178 175 173 183 196 194 178 172 180
207 221 231 244 250 255 170 161 197 237 220 117 110 351 310 271 311 15 359 15 41 48 10 334 252 181 182 214 230 250 238 225 199 178 171 169 177 185 190 186 183 179 171 169
220 220 224 232 243 239 161 193 207 158 82 71 26 343 343 352 10 338 328 327 354 8 300 267 260 192 191 215 225 258 262 253 176 158 171 173 181 190 185 179 186 181 172 173
231 235 240 237 243 114 163 254 74 103 269 303 346 4 338 318 307 309 308 285 262 255 270 254 251 227 221 219 228 250 278 285 147 150 180 174 175 178 174 179 180 177 172 177
242 252 265 263 246 237 231 243 265 274 276 320 331 318 309 301 295 290 286 273 268 270 272 255 235 230 232 218 223 217 227 198 211 192 198 183 176 180 178 178 182 181 186 192
269 262 258 261 257 263 250 252 270 290 309 318 311 309 308 301 292 284 279 266 254 262 259 248 228 229 231 235 217 194 189 189 230 212 203 204 178 174 180 198 216 207 210 206
253 254 250 256 256 258 261 266 278 292 293 301 306 302 296 291 285 282 275 267 254 251 263 267 244 232 225 225 223 211 202 187 211 212 201 198 181 175 178 181 174 347 226 189